Voltar ao catálogo

STARLINK-35808

AtivoComunicaçõesVLEO
NORAD 68052·PAYLOAD·🇺🇸 United States

Lançado Mar 2, 2026 de Vandenberg Space Force Base

Loading…

Próximas Passagens (próximas 24 horas)

TLE

AtualizadoSource: CelesTrak SupGP

Época: Sep 14, 2026, 21:13 UTC

1 68052C 26041N   26257.88451389  .00053528  00000+0  15817-2 0  2575
2 68052  53.1580 247.7385 0001306  93.4901 208.5560 15.34360803    17

Acompanhe STARLINK-35808 em tempo real com AllMySat

Download on the App Store